Marshfield, MA

7:21 AM EDT on June 19, 2018 (GMT -0400)
Marshfield

Weather History for KGHG - June, 2018

Change the Weather History Date:

Thursday, June 14, 2018

  Actual Average (WUND) Record (WUND)
Temperature  
Mean Temperature 72 °F -  
Max Temperature 80 °F - - (-1)
Min Temperature 64 °F - - (-1)
Cooling Degree Days 7    
Growing Degree Days 22 (Base 50)    
Moisture  
Dew Point 57 °F    
Average Humidity 63    
Maximum Humidity 100    
Minimum Humidity 37    
Precipitation  
Precipitation 0.00 in - - ()
Sea Level Pressure  
Sea Level Pressure 29.67 in    
Wind  
Wind Speed 8 mph (West)    
Max Wind Speed 14 mph    
Max Gust Speed 24 mph    
Visibility 10 miles    
Events      
Averages and records for this station are not official NWS values.
T = Trace of Precipitation, MM = Missing Value Source: NWS Daily Summary

Daily Weather History Graph

Daily Weather History Graph

Search for Another Location

Airport or City:

Astronomy

Jun. 14, 2018 Rise Set
Actual Time 5:06 AM EDT 8:19 PM EDT
Civil Twilight 4:31 AM EDT 8:54 PM EDT
Nautical Twilight 3:47 AM EDT 9:38 PM EDT
Astronomical Twilight 2:53 AM EDT 10:32 PM EDT
Moon 6:01 AM EDT (6/14) 9:16 PM EDT (6/14)
Length of Visible Light 16h 22m
Length of Day
15h 13m
New Moon, 1% of the Moon is Illuminated
Jun 14
New Moon
Jun 20
First Quarter
Jun 28
Full
Jul 6
Last Quarter
Jul 12
New

Hourly Weather History & Observations

Time (EDT) Temp. Dew Point Humidity Pressure Visibility Wind Dir Wind Speed Gust Speed Precip Events Conditions
12:15 AM 68.0 °F 66.2 °F 94% 29.65 in 10.0 mi SW 12.7 mph - N/A   Mostly Cloudy
12:35 AM 69.8 °F 68.0 °F 94% 29.64 in 10.0 mi SW 10.4 mph 17.3 mph N/A   Mostly Cloudy
12:55 AM 69.8 °F 68.0 °F 94% 29.67 in 10.0 mi SW 6.9 mph 15.0 mph N/A   Overcast
1:15 AM 69.8 °F 68.0 °F 94% 29.66 in 10.0 mi SW 10.4 mph 17.3 mph N/A   Overcast
1:35 AM 68.0 °F 68.0 °F 100% 29.65 in 10.0 mi SW 6.9 mph 15.0 mph N/A   Overcast
1:55 AM 68.0 °F 68.0 °F 100% 29.64 in 10.0 mi SW 6.9 mph 15.0 mph N/A   Overcast
2:15 AM 68.0 °F 68.0 °F 100% 29.64 in 10.0 mi SW 5.8 mph - N/A   Mostly Cloudy
2:35 AM 68.0 °F 68.0 °F 100% 29.63 in 10.0 mi SW 5.8 mph - N/A   Mostly Cloudy
2:55 AM 68.0 °F 68.0 °F 100% 29.63 in 10.0 mi WSW 5.8 mph 11.5 mph N/A   Overcast
3:15 AM 68.0 °F 68.0 °F 100% 29.62 in 10.0 mi Variable 6.9 mph - N/A   Overcast
3:35 AM 68.0 °F 68.0 °F 100% 29.63 in 10.0 mi Calm Calm 11.5 mph N/A   Mostly Cloudy
3:55 AM 68.0 °F 68.0 °F 100% 29.62 in 10.0 mi Variable 3.5 mph - N/A   Mostly Cloudy
4:15 AM 68.0 °F 68.0 °F 100% 29.62 in 10.0 mi Calm Calm - N/A   Partly Cloudy
4:35 AM 68.0 °F 68.0 °F 100% 29.61 in 8.0 mi WSW 3.5 mph - N/A   Clear
4:55 AM 68.0 °F 68.0 °F 100% 29.61 in 6.0 mi WSW 4.6 mph - N/A   Clear
5:15 AM 68.0 °F 68.0 °F 100% 29.62 in 5.0 mi WSW 4.6 mph - N/A   Clear
5:55 AM 68.0 °F 64.4 °F 88% 29.63 in 10.0 mi Variable 6.9 mph 15.0 mph N/A   Clear
6:15 AM 68.0 °F 64.4 °F 88% 29.64 in 10.0 mi Variable 5.8 mph 12.7 mph N/A   Clear
6:35 AM 69.8 °F 62.6 °F 78% 29.64 in 10.0 mi Variable 5.8 mph - N/A   Clear
6:55 AM 69.8 °F 60.8 °F 73% 29.64 in 10.0 mi Variable 6.9 mph 16.1 mph N/A   Clear
7:15 AM 69.8 °F 59.0 °F 68% 29.65 in 10.0 mi West 10.4 mph - N/A   Clear
7:35 AM 71.6 °F 55.4 °F 57% 29.65 in 10.0 mi West 11.5 mph 20.7 mph N/A   Clear
7:55 AM 71.6 °F 55.4 °F 57% 29.65 in 10.0 mi WSW 10.4 mph 16.1 mph N/A   Clear
8:15 AM 71.6 °F 55.4 °F 57% 29.65 in 10.0 mi WSW 12.7 mph 19.6 mph N/A   Clear
8:35 AM 73.4 °F 53.6 °F 50% 29.65 in 10.0 mi Variable 10.4 mph 17.3 mph N/A   Clear
8:55 AM 73.4 °F 55.4 °F 53% 29.64 in 10.0 mi Variable 6.9 mph 17.3 mph N/A   Clear
9:15 AM 73.4 °F 53.6 °F 50% 29.64 in 10.0 mi West 11.5 mph 19.6 mph N/A   Clear
9:35 AM 75.2 °F 53.6 °F 47% 29.64 in 10.0 mi WSW 13.8 mph 19.6 mph N/A   Clear
9:55 AM 75.2 °F 53.6 °F 47% 29.65 in 10.0 mi WSW 11.5 mph 21.9 mph N/A   Clear
10:15 AM 77.0 °F 53.6 °F 44% 29.64 in 10.0 mi WSW 10.4 mph 23.0 mph N/A   Clear
10:35 AM 77.0 °F 51.8 °F 41% 29.64 in 10.0 mi West 13.8 mph 21.9 mph N/A   Clear
10:55 AM 77.0 °F 51.8 °F 41% 29.64 in 10.0 mi West 8.1 mph 21.9 mph N/A   Clear
11:15 AM 78.8 °F 53.6 °F 42% 29.64 in 10.0 mi West 11.5 mph 23.0 mph N/A   Clear
11:35 AM 78.8 °F 51.8 °F 39% 29.64 in 10.0 mi West 12.7 mph 24.2 mph N/A   Clear
11:55 AM 78.8 °F 51.8 °F 39% 29.64 in 10.0 mi West 13.8 mph 23.0 mph N/A   Clear
12:15 PM 80.6 °F 51.8 °F 37% 29.63 in 10.0 mi Variable 9.2 mph 19.6 mph N/A   Partly Cloudy
12:35 PM 78.8 °F 51.8 °F 39% 29.64 in 10.0 mi West 10.4 mph 19.6 mph N/A   Mostly Cloudy
12:55 PM 78.8 °F 51.8 °F 39% 29.63 in 10.0 mi West 11.5 mph 19.6 mph N/A   Mostly Cloudy
1:15 PM 78.8 °F 51.8 °F 39% 29.63 in 10.0 mi Variable 6.9 mph 18.4 mph N/A   Mostly Cloudy
1:35 PM 78.8 °F 51.8 °F 39% 29.64 in 10.0 mi West 10.4 mph 18.4 mph N/A   Mostly Cloudy
1:55 PM 78.8 °F 51.8 °F 39% 29.64 in 10.0 mi Variable 6.9 mph 16.1 mph N/A   Mostly Cloudy
2:15 PM 78.8 °F 51.8 °F 39% 29.64 in 10.0 mi WNW 9.2 mph 16.1 mph N/A   Mostly Cloudy
2:35 PM 77.0 °F 51.8 °F 41% 29.64 in 10.0 mi Variable 5.8 mph 12.7 mph N/A   Overcast
2:55 PM 77.0 °F 51.8 °F 41% 29.64 in 10.0 mi WNW 8.1 mph - N/A   Overcast
3:15 PM 77.0 °F 53.6 °F 44% 29.65 in 10.0 mi Variable 4.6 mph - N/A   Overcast
3:35 PM 77.0 °F 53.6 °F 44% 29.64 in 10.0 mi Variable 4.6 mph - N/A   Mostly Cloudy
3:55 PM 77.0 °F 53.6 °F 44% 29.65 in 10.0 mi Variable 4.6 mph - N/A   Mostly Cloudy
4:15 PM 77.0 °F 53.6 °F 44% 29.66 in 10.0 mi Variable 5.8 mph 17.3 mph N/A   Mostly Cloudy
4:35 PM 75.2 °F 53.6 °F 47% 29.66 in 10.0 mi Variable 5.8 mph 11.5 mph N/A   Overcast
4:55 PM 75.2 °F 53.6 °F 47% 29.67 in 10.0 mi NW 9.2 mph 15.0 mph N/A   Overcast
5:15 PM 75.2 °F 53.6 °F 47% 29.67 in 10.0 mi WNW 8.1 mph 17.3 mph N/A   Overcast
5:35 PM 75.2 °F 53.6 °F 47% 29.68 in 10.0 mi Variable 6.9 mph 17.3 mph N/A   Mostly Cloudy
5:55 PM 73.4 °F 53.6 °F 50% 29.69 in 10.0 mi NW 9.2 mph 18.4 mph N/A   Mostly Cloudy
6:15 PM 73.4 °F 53.6 °F 50% 29.70 in 10.0 mi Variable 5.8 mph 16.1 mph N/A   Mostly Cloudy
6:35 PM 73.4 °F 55.4 °F 53% 29.71 in 10.0 mi NW 12.7 mph 19.6 mph N/A   Overcast
6:55 PM 71.6 °F 53.6 °F 53% 29.72 in 10.0 mi NW 8.1 mph 21.9 mph N/A   Overcast
7:15 PM 71.6 °F 53.6 °F 53% 29.72 in 10.0 mi NW 8.1 mph - N/A   Mostly Cloudy
7:35 PM 71.6 °F 53.6 °F 53% 29.73 in 10.0 mi Variable 6.9 mph 15.0 mph N/A   Mostly Cloudy
7:55 PM 71.6 °F 53.6 °F 53% 29.74 in 10.0 mi WNW 8.1 mph - N/A   Overcast
8:15 PM 69.8 °F 53.6 °F 56% 29.74 in 10.0 mi Variable 6.9 mph 12.7 mph N/A   Overcast
8:35 PM 69.8 °F 53.6 °F 56% 29.74 in 10.0 mi WNW 8.1 mph 15.0 mph N/A   Overcast
8:55 PM 69.8 °F 53.6 °F 56% 29.74 in 10.0 mi WNW 5.8 mph - N/A   Overcast
9:15 PM 68.0 °F 53.6 °F 60% 29.75 in 10.0 mi WNW 4.6 mph - N/A   Overcast
9:35 PM 68.0 °F 53.6 °F 60% 29.77 in 10.0 mi West 3.5 mph - N/A   Scattered Clouds
9:55 PM 68.0 °F 53.6 °F 60% 29.78 in 10.0 mi Variable 3.5 mph - N/A   Partly Cloudy
10:15 PM 66.2 °F 53.6 °F 64% 29.79 in 10.0 mi Variable 3.5 mph - N/A   Scattered Clouds
10:35 PM 66.2 °F 53.6 °F 64% 29.79 in 10.0 mi WNW 4.6 mph - N/A   Mostly Cloudy
10:55 PM 66.2 °F 53.6 °F 64% 29.79 in 10.0 mi Variable 3.5 mph - N/A   Scattered Clouds
11:15 PM 64.4 °F 55.4 °F 73% 29.79 in 10.0 mi Variable 5.8 mph - N/A   Mostly Cloudy
11:35 PM 64.4 °F 55.4 °F 73% 29.79 in 10.0 mi Variable 4.6 mph - N/A   Mostly Cloudy
11:55 PM 64.4 °F 55.4 °F 73% 29.79 in 10.0 mi Variable 4.6 mph - N/A   Overcast